SCP
0 0 0 0 0 0 0 0 0 0 0 0 0 0 0 0 0 0 0 0 0 0 0 0 0 0 0 0 0 0 0 0 0 0 0 0 0 0 0 0 0 0 0
0 0 0 0 0 0 0 0 0 0 0 0 0 0 0 0 0 0 0 0 0 0 0 0 0 0 0 0 0 0 0 0 0 0 0 0 0 0 0 0 0 0 0
0 0 0 0 0 -0 0 0 0 0 0 0 0 0 0 0 0 0 0 0 0 0 0 0 0 0 0 0 0 0 0 0 0 0 0 0 0 0 0 0 0 0 0
0 0 0 0 0 0 0 0 0 0 0 0 0 0 0 0 0 0 0 0 0 0 0 0 0 0 0 0 0 0 0 0 0 0 0 0 0 0 0 0 0 0 0
0 0 0 0 0 0 0 0 0 0 0 0 0 0 0 0 0 0 0 0 0 0 0 0 0 0 0 0 0 0 0 0 0 0 0 0 0 0 0 0 0 0 0
0 0 0 0 0 0 0 0 0 0 0 0 0 0 0 0 0 0 0 0 0 0 0 0 0 0 0 0 0 0 0 0 0 0 0 0 0 0 0 0 0 0 0
0 0 0 0 0 0 0 0 0 0 0 0 0 0 0 0 0 0 0 0 0 0 0 0 0 0 0 0 0 0 0 0 0 0 0 0 0 0 0 0 0 0 0
0 0 0 0 0 0 0 0 0 0 0 0 0 0 0 0 0 0 0 0 0 0 0 0 0 0 0 0 0 0 0 0 0 0 0 0 0 0 0 0 0 0 0
0 0 0 0 0 0 0 0 0 0 0 0 0 0 0 0 0 0 0 0 0 0 0 0 0 0 0 0 0 0 0 0 0 0 0 0 0 0 0 0 0 0 0
0 0 0 0 0 0 0 0 0 0 0 0 0 0 0 0 0 0 0 0 0 0 0 0 0 0 0 0 0 0 0 0 0 0 0 0 0 0 0 0 0 0 0
0 0 0 0 0 0 0 0 0 0 0 0 0 0 0 0 0 0 0 0 0 0 0 0 0 0 0 0 0 0 0 0 0 0 0 0 0 0 0 0 0 0 0
0 0 0 0 0 0 0 0 0 0 0 0 0 0 0 0 0 0 0 0 0 0 0 0 0 0 0 0 0 0 0 0 0 0 0 0 0 0 0 0 0 0 0
0 0 0 0 0 0 0 0 0 0 0 0 0 0 0 0 0 0 0 0 0 0 0 0 0 0 0 0 0 0 0 0 0 0 0 0 0 0 0 0 0 0 0
0 0 0 0 0 0 0 0 0 0 0 0 0 0 0 0 0 0 0 0 0 0 0 0 0 0 0 0 0 0 0 0 0 0 0 0 0 0 0 0 0 0 0
0 0 0 0 0 0 0 0 0 0 0 0 0 0 0 0 0 0 0 0 0 0 0 0 0 0 0 0 0 0 0 0 0 0 0 0 0 0 0 0 0 0 0
0 0 0 0 0 0 0 0 0 0 0 0 0 0 0 0 0 0 0 0 0 0 0 0 0 0 0 0 0 0 0 0 0 0 0 0 0 0 0 0 0 0 0
0 0 0 0 0 0 0 0 0 0 0 0 0 0 0 0 0 0 0 0 0 0 0 0 0 0 0 0 0 0 0 0 0 0 0 0 0 0 0 0 0 0 0
0 0 0 0 0 0 0 0 0 0 0 0 0 0 0 0 0 0 0 0 0 0 0 0 0 0 0 0 0 0 0 0 0 0 0 0 0 0 0 0 0 0 0
0 0 0 0 0 0 0 0 0 0 0 0 0 0 0 0 0 0 0 0 0 0 0 0 0 0 0 0 0 0 0 0 0 0 0 0 0 0 0 0 0 0 0
0 0 0 0 0 0 0 0 0 0 0 0 0 0 0 0 0 0 0 0 0 0 0 0 0 0 0 0 0 0 0 0 0 0 0 0 0 0 0 0 0 0 0
0 0 0 0 0 0 0 0 0 0 0 0 0 0 0 0 0 0 0 0 0 0 0 0 0 0 0 0 0 0 0 0 0 0 0 0 0 0 0 0 0 0 0
0 0 0 0 0 0 0 0 0 0 0 0 0 0 0 0 0 0 0 0 0 0 0 0 0 0 0 0 0 0 0 0 0 0 0 0 0 0 0 0 -0 0 0
0 0 0 0 0 0 0 0 0 0 0 0 0 0 0 0 0 0 0 0 0 0 0 0 0 0 0 0 0 0 0 0 0 0 0 0 0 0 0 0 0 0 0
0 0 0 0 0 0 0 0 0 0 0 0 0 0 0 0 0 0 0 0 0 0 0 0 0 0 0 0 0 0 0 0 0 0 0 0 0 0 0 0 0 0 0
0 0 0 0 0 0 0 0 0 0 0 0 0 0 0 0 0 0 0 0 0 0 0 0 0 0 0 0 0 0 0 0 0 0 0 0 0 0 0 0 0 0 0
0 0 0 0 0 0 0 0 0 0 0 0 0 0 0 0 0 0 0 0 0 0 0 0 0 0 0 0 0 0 0 0 0 0 0 0 0 0 0 0 0 0 0
Wind_Speed_500mb
17 18 19 18 20 22 23 23 23 22 21 18 16 16 14 11 10 8 8 7 11 14 16 17 18 17 16 15 14 13 13 13 15 17 19 23 23 20 12 9 9 9 9
19 19 19 19 20 23 24 26 24 22 19 15 13 10 11 9 8 5 1 5 9 13 17 17 18 17 17 16 14 12 10 9 9 10 14 17 22 20 14 8 4 3 1
17 18 17 20 22 24 27 25 19 12 6 6 13 8 5 3 1 1 3 6 9 11 13 14 15 14 14 13 12 10 10 8 7 6 7 6 10 12 11 9 9 5 6
20 19 18 23 26 25 23 17 10 2 9 8 2 2 3 4 3 2 6 9 12 13 15 16 17 17 16 14 13 10 9 8 7 7 7 5 8 10 9 5 4 6 6
26 23 22 26 22 21 18 10 1 9 10 7 4 3 2 3 4 6 7 10 13 14 15 17 18 18 17 17 16 14 12 11 11 12 13 13 17 16 18 15 12 12 7
40 25 23 24 19 16 15 8 3 6 10 9 9 9 12 11 7 7 10 12 15 17 16 17 18 18 18 17 16 16 14 13 14 15 18 19 23 24 21 17 17 17 17
30 31 29 30 21 17 10 7 2 9 12 12 13 13 15 9 8 10 12 15 17 18 20 20 20 20 20 20 19 18 15 14 15 17 18 21 23 25 25 22 23 24 24
34 36 26 19 12 14 12 8 8 9 11 11 13 16 13 9 9 10 11 14 16 17 19 20 20 21 20 20 20 20 19 18 17 17 18 20 21 24 25 25 24 23 26
33 31 27 16 12 11 12 10 8 12 8 8 10 10 9 10 10 11 12 13 17 19 20 20 22 21 21 20 19 20 21 21 21 20 21 22 22 22 24 22 22 24 25
22 19 16 16 19 13 8 8 8 5 4 4 4 6 7 9 11 13 15 15 17 19 21 23 23 24 24 23 22 21 22 23 24 22 21 22 24 26 27 28 26 25 27
24 20 16 13 11 11 10 10 9 10 3 7 4 8 9 10 12 14 17 19 20 22 23 24 24 24 25 25 25 23 22 23 24 25 24 23 23 25 27 28 27 27 26
31 28 26 20 18 15 13 13 13 12 10 7 7 9 10 12 14 16 18 20 22 24 25 25 25 24 24 25 25 25 24 24 24 25 25 24 23 25 27 29 30 30 30
23 23 24 21 24 23 20 16 14 12 10 9 8 9 9 13 14 18 21 23 24 25 26 26 25 25 23 23 23 24 24 23 24 25 27 26 25 27 28 30 31 32 33
15 16 18 21 22 19 18 17 14 13 11 10 9 9 11 15 17 21 24 26 27 26 26 26 24 22 22 23 22 23 24 24 23 24 27 27 27 27 28 29 29 31 34
18 16 15 17 20 20 20 18 16 15 13 12 11 10 13 17 21 23 25 25 25 25 24 23 22 21 20 21 22 22 23 24 25 25 27 27 28 29 29 28 30 32 32
19 18 16 18 20 20 20 20 19 18 16 15 13 12 15 18 22 24 23 22 23 25 26 24 21 18 18 20 22 24 25 25 26 25 23 22 23 24 25 26 28 31 34
23 21 19 18 20 22 23 24 24 22 19 17 15 14 16 19 22 22 22 23 25 27 28 24 22 21 20 21 23 24 25 26 23 20 18 18 20 24 30 34 31 32 35
29 25 24 24 23 22 25 29 29 25 23 19 16 16 17 19 21 21 22 25 27 28 25 20 17 17 19 20 21 21 23 19 15 13 16 24 29 25 29 32 36 39 44
39 33 31 31 28 26 28 31 32 29 26 22 19 18 19 20 20 21 24 27 28 28 24 20 20 20 18 17 20 21 17 12 10 9 31 18 27 25 27 36 42 45 48
31 38 38 38 37 32 30 32 33 32 28 25 22 21 21 21 21 23 27 30 30 27 24 22 21 22 23 22 20 20 14 8 5 22 21 28 22 31 36 43 47 51 51
38 35 39 41 39 35 31 31 33 34 30 28 25 24 22 21 23 25 28 30 30 27 24 22 21 21 21 22 19 17 9 11 2 35 20 23 24 36 41 51 54 53 52
30 33 36 39 39 32 26 25 28 29 29 27 26 25 23 23 24 27 29 30 30 28 26 24 23 22 21 22 25 21 10 10 7 35 28 23 30 37 47 51 51 51 54
17 21 29 35 37 32 25 24 26 27 27 24 22 22 24 25 25 27 29 31 32 31 27 26 26 24 23 21 22 16 10 8 45 16 34 25 49 41 52 53 52 54 45
11 16 25 33 35 32 26 24 25 25 26 26 25 26 27 27 28 28 29 30 31 32 30 29 29 28 28 26 26 24 25 29 22 28 28 54 48 57 56 55 58 46 43
9 11 18 26 31 28 26 26 26 26 28 29 30 30 30 30 31 32 33 34 33 33 32 32 33 34 34 33 32 34 36 37 40 40 60 62 69 60 60 62 58 52 39
12 12 17 24 28 29 29 28 27 28 29 29 30 31 32 34 37 40 43 44 44 42 39 37 38 40 40 41 41 42 42 43 50 49 61 73 76 73 63 63 62 56 54
Wind_Direction_500mb
171 156 156 158 152 154 150 147 141 136 130 125 124 135 132 126 132 127 86 43 14 7 4 5 10 10 14 15 18 17 20 29 34 38 58 54 45 41 42 57 81 89 94
162 158 158 163 167 161 155 150 149 144 138 135 146 147 123 160 163 151 102 2 4 359 358 359 3 5 3 2 1 1 359 4 17 26 46 64 51 34 33 33 357 4 60
157 164 167 164 168 159 153 147 148 146 162 196 170 181 205 198 225 12 357 343 351 349 349 348 347 345 343 342 339 339 337 337 334 339 355 77 56 29 23 38 12 293 280
153 156 158 157 154 153 161 166 152 29 308 321 263 185 170 188 201 285 307 324 333 339 340 340 338 337 334 327 318 310 306 300 294 284 284 264 211 262 294 318 323 350 315
160 162 166 159 163 165 168 170 109 342 313 317 335 315 285 251 251 284 308 328 328 332 336 336 337 337 334 332 321 314 299 283 267 265 265 260 273 266 260 277 282 287 303
170 169 174 192 183 191 179 163 123 315 304 305 299 305 299 291 291 301 310 318 326 332 336 338 337 337 336 334 330 321 313 299 284 269 263 263 266 278 281 285 273 276 273
203 183 152 167 181 182 183 204 234 295 288 287 280 295 294 282 300 310 320 325 329 333 337 341 341 341 340 336 332 323 320 311 299 289 278 275 274 281 285 283 279 276 272
165 176 208 211 209 204 210 221 233 261 293 292 281 278 278 292 310 318 323 323 325 332 334 335 336 336 336 333 330 322 319 315 309 303 295 288 288 288 293 295 289 279 274
199 205 204 222 225 217 232 228 233 249 253 282 283 278 292 300 308 315 323 328 328 329 330 333 332 332 330 326 324 317 316 312 307 305 302 301 299 296 296 296 297 297 292
204 206 220 229 244 252 248 249 229 231 198 196 285 304 304 304 317 319 322 325 326 328 333 335 331 329 327 322 319 314 311 308 307 304 300 300 301 300 299 304 302 297 296
222 231 237 253 265 252 237 240 210 222 225 245 278 284 296 304 312 321 328 330 330 329 329 329 327 326 323 321 319 315 311 309 308 306 306 307 307 304 305 306 307 308 303
224 238 246 248 249 244 233 226 220 225 243 262 265 279 296 312 322 327 326 326 326 326 324 323 322 320 320 319 316 316 315 313 312 310 308 311 312 311 310 312 313 313 309
227 233 236 239 239 234 227 224 226 230 238 248 263 287 311 310 319 320 320 320 320 321 320 321 321 320 318 317 316 315 315 315 315 313 313 314 313 310 309 310 311 310 307
232 236 226 223 229 231 229 229 232 237 241 255 274 284 306 311 317 317 318 318 318 318 321 321 321 321 322 320 319 319 319 318 316 313 310 310 311 310 307 307 308 304 305
243 247 241 236 236 240 240 239 237 240 246 256 269 287 299 310 315 316 319 320 320 321 320 321 320 321 321 321 319 319 319 318 316 314 312 312 312 310 310 307 307 309 311
259 255 251 246 247 246 245 243 241 241 248 256 269 288 306 315 318 321 320 321 322 320 320 321 318 317 319 322 322 321 320 317 314 311 309 313 316 317 316 316 317 315 314
265 259 258 256 251 249 246 245 244 242 245 252 268 287 303 313 318 319 319 320 320 320 320 318 318 320 326 325 324 323 322 319 320 325 334 337 342 335 323 319 324 325 319
253 250 251 251 255 256 251 245 245 244 247 253 265 282 297 309 312 312 314 315 317 316 315 313 311 317 322 323 325 325 324 323 329 350 2 336 326 331 333 330 330 327 321
252 248 248 249 252 254 254 251 249 248 250 257 266 279 291 298 301 304 310 316 317 316 314 314 317 322 325 328 331 332 330 328 336 14 345 2 345 346 348 335 330 326 322
257 247 244 246 245 251 258 255 251 252 254 257 262 273 280 291 297 304 312 316 317 314 311 310 317 324 330 334 340 338 330 327 332 355 1 350 4 353 345 337 329 323 320
265 254 242 237 240 247 259 255 251 250 252 254 259 268 277 285 292 300 308 312 312 308 304 301 308 317 322 329 339 351 336 327 251 343 346 343 351 348 344 336 331 325 321
267 248 233 228 233 244 254 257 255 254 253 257 263 268 266 278 285 295 304 310 311 308 302 298 304 314 320 331 342 346 336 310 288 328 334 328 336 336 339 336 333 326 321
269 245 229 222 227 233 242 254 256 254 255 257 261 259 265 276 285 296 306 313 313 309 302 293 295 301 306 317 329 340 331 302 319 311 322 316 325 326 331 332 331 324 317
271 240 226 220 220 225 236 251 254 252 254 257 260 262 267 273 281 293 302 308 312 307 303 294 291 291 293 300 307 310 310 307 313 310 307 310 315 320 323 326 331 330 320
261 241 225 217 218 227 241 251 253 255 258 261 266 269 269 275 282 289 295 299 301 303 301 292 287 285 287 289 292 299 300 303 301 297 302 308 308 313 318 321 325 327 319
243 229 221 218 222 231 242 251 258 262 265 269 272 274 277 280 284 288 291 294 295 295 294 292 286 284 283 285 287 290 293 295 296 297 296 302 305 307 309 313 318 321 320
Wind_Speed_850mb
17 18 19 18 20 22 23 23 23 22 21 18 16 16 14 11 10 8 8 7 11 14 16 17 18 17 16 15 14 13 13 13 15 17 19 23 23 20 12 9 9 9 9
19 19 19 19 20 23 24 26 24 22 19 15 13 10 11 9 8 5 1 5 9 13 17 17 18 17 17 16 14 12 10 9 9 10 14 17 22 20 14 8 4 3 1
17 18 17 20 22 24 27 25 19 12 6 6 13 8 5 3 1 1 3 6 9 11 13 14 15 14 14 13 12 10 10 8 7 6 7 6 10 12 11 9 9 5 6
20 19 18 23 26 25 23 17 10 2 9 8 2 2 3 4 3 2 6 9 12 13 15 16 17 17 16 14 13 10 9 8 7 7 7 5 8 10 9 5 4 6 6
26 23 22 26 22 21 18 10 1 9 10 7 4 3 2 3 4 6 7 10 13 14 15 17 18 18 17 17 16 14 12 11 11 12 13 13 17 16 18 15 12 12 7
40 25 23 24 19 16 15 8 3 6 10 9 9 9 12 11 7 7 10 12 15 17 16 17 18 18 18 17 16 16 14 13 14 15 18 19 23 24 21 17 17 17 17
30 31 29 30 21 17 10 7 2 9 12 12 13 13 15 9 8 10 12 15 17 18 20 20 20 20 20 20 19 18 15 14 15 17 18 21 23 25 25 22 23 24 24
34 36 26 19 12 14 12 8 8 9 11 11 13 16 13 9 9 10 11 14 16 17 19 20 20 21 20 20 20 20 19 18 17 17 18 20 21 24 25 25 24 23 26
33 31 27 16 12 11 12 10 8 12 8 8 10 10 9 10 10 11 12 13 17 19 20 20 22 21 21 20 19 20 21 21 21 20 21 22 22 22 24 22 22 24 25
22 19 16 16 19 13 8 8 8 5 4 4 4 6 7 9 11 13 15 15 17 19 21 23 23 24 24 23 22 21 22 23 24 22 21 22 24 26 27 28 26 25 27
24 20 16 13 11 11 10 10 9 10 3 7 4 8 9 10 12 14 17 19 20 22 23 24 24 24 25 25 25 23 22 23 24 25 24 23 23 25 27 28 27 27 26
31 28 26 20 18 15 13 13 13 12 10 7 7 9 10 12 14 16 18 20 22 24 25 25 25 24 24 25 25 25 24 24 24 25 25 24 23 25 27 29 30 30 30
23 23 24 21 24 23 20 16 14 12 10 9 8 9 9 13 14 18 21 23 24 25 26 26 25 25 23 23 23 24 24 23 24 25 27 26 25 27 28 30 31 32 33
15 16 18 21 22 19 18 17 14 13 11 10 9 9 11 15 17 21 24 26 27 26 26 26 24 22 22 23 22 23 24 24 23 24 27 27 27 27 28 29 29 31 34
18 16 15 17 20 20 20 18 16 15 13 12 11 10 13 17 21 23 25 25 25 25 24 23 22 21 20 21 22 22 23 24 25 25 27 27 28 29 29 28 30 32 32
19 18 16 18 20 20 20 20 19 18 16 15 13 12 15 18 22 24 23 22 23 25 26 24 21 18 18 20 22 24 25 25 26 25 23 22 23 24 25 26 28 31 34
23 21 19 18 20 22 23 24 24 22 19 17 15 14 16 19 22 22 22 23 25 27 28 24 22 21 20 21 23 24 25 26 23 20 18 18 20 24 30 34 31 32 35
29 25 24 24 23 22 25 29 29 25 23 19 16 16 17 19 21 21 22 25 27 28 25 20 17 17 19 20 21 21 23 19 15 13 16 24 29 25 29 32 36 39 44
39 33 31 31 28 26 28 31 32 29 26 22 19 18 19 20 20 21 24 27 28 28 24 20 20 20 18 17 20 21 17 12 10 9 31 18 27 25 27 36 42 45 48
31 38 38 38 37 32 30 32 33 32 28 25 22 21 21 21 21 23 27 30 30 27 24 22 21 22 23 22 20 20 14 8 5 22 21 28 22 31 36 43 47 51 51
38 35 39 41 39 35 31 31 33 34 30 28 25 24 22 21 23 25 28 30 30 27 24 22 21 21 21 22 19 17 9 11 2 35 20 23 24 36 41 51 54 53 52
30 33 36 39 39 32 26 25 28 29 29 27 26 25 23 23 24 27 29 30 30 28 26 24 23 22 21 22 25 21 10 10 7 35 28 23 30 37 47 51 51 51 54
17 21 29 35 37 32 25 24 26 27 27 24 22 22 24 25 25 27 29 31 32 31 27 26 26 24 23 21 22 16 10 8 45 16 34 25 49 41 52 53 52 54 45
11 16 25 33 35 32 26 24 25 25 26 26 25 26 27 27 28 28 29 30 31 32 30 29 29 28 28 26 26 24 25 29 22 28 28 54 48 57 56 55 58 46 43
9 11 18 26 31 28 26 26 26 26 28 29 30 30 30 30 31 32 33 34 33 33 32 32 33 34 34 33 32 34 36 37 40 40 60 62 69 60 60 62 58 52 39
12 12 17 24 28 29 29 28 27 28 29 29 30 31 32 34 37 40 43 44 44 42 39 37 38 40 40 41 41 42 42 43 50 49 61 73 76 73 63 63 62 56 54
Wind_Direction_850mb
171 156 156 158 152 154 150 147 141 136 130 125 124 135 132 126 132 127 86 43 14 7 4 5 10 10 14 15 18 17 20 29 34 38 58 54 45 41 42 57 81 89 94
162 158 158 163 167 161 155 150 149 144 138 135 146 147 123 160 163 151 102 2 4 359 358 359 3 5 3 2 1 1 359 4 17 26 46 64 51 34 33 33 357 4 60
157 164 167 164 168 159 153 147 148 146 162 196 170 181 205 198 225 12 357 343 351 349 349 348 347 345 343 342 339 339 337 337 334 339 355 77 56 29 23 38 12 293 280
153 156 158 157 154 153 161 166 152 29 308 321 263 185 170 188 201 285 307 324 333 339 340 340 338 337 334 327 318 310 306 300 294 284 284 264 211 262 294 318 323 350 315
160 162 166 159 163 165 168 170 109 342 313 317 335 315 285 251 251 284 308 328 328 332 336 336 337 337 334 332 321 314 299 283 267 265 265 260 273 266 260 277 282 287 303
170 169 174 192 183 191 179 163 123 315 304 305 299 305 299 291 291 301 310 318 326 332 336 338 337 337 336 334 330 321 313 299 284 269 263 263 266 278 281 285 273 276 273
203 183 152 167 181 182 183 204 234 295 288 287 280 295 294 282 300 310 320 325 329 333 337 341 341 341 340 336 332 323 320 311 299 289 278 275 274 281 285 283 279 276 272
165 176 208 211 209 204 210 221 233 261 293 292 281 278 278 292 310 318 323 323 325 332 334 335 336 336 336 333 330 322 319 315 309 303 295 288 288 288 293 295 289 279 274
199 205 204 222 225 217 232 228 233 249 253 282 283 278 292 300 308 315 323 328 328 329 330 333 332 332 330 326 324 317 316 312 307 305 302 301 299 296 296 296 297 297 292
204 206 220 229 244 252 248 249 229 231 198 196 285 304 304 304 317 319 322 325 326 328 333 335 331 329 327 322 319 314 311 308 307 304 300 300 301 300 299 304 302 297 296
222 231 237 253 265 252 237 240 210 222 225 245 278 284 296 304 312 321 328 330 330 329 329 329 327 326 323 321 319 315 311 309 308 306 306 307 307 304 305 306 307 308 303
224 238 246 248 249 244 233 226 220 225 243 262 265 279 296 312 322 327 326 326 326 326 324 323 322 320 320 319 316 316 315 313 312 310 308 311 312 311 310 312 313 313 309
227 233 236 239 239 234 227 224 226 230 238 248 263 287 311 310 319 320 320 320 320 321 320 321 321 320 318 317 316 315 315 315 315 313 313 314 313 310 309 310 311 310 307
232 236 226 223 229 231 229 229 232 237 241 255 274 284 306 311 317 317 318 318 318 318 321 321 321 321 322 320 319 319 319 318 316 313 310 310 311 310 307 307 308 304 305
243 247 241 236 236 240 240 239 237 240 246 256 269 287 299 310 315 316 319 320 320 321 320 321 320 321 321 321 319 319 319 318 316 314 312 312 312 310 310 307 307 309 311
259 255 251 246 247 246 245 243 241 241 248 256 269 288 306 315 318 321 320 321 322 320 320 321 318 317 319 322 322 321 320 317 314 311 309 313 316 317 316 316 317 315 314
265 259 258 256 251 249 246 245 244 242 245 252 268 287 303 313 318 319 319 320 320 320 320 318 318 320 326 325 324 323 322 319 320 325 334 337 342 335 323 319 324 325 319
253 250 251 251 255 256 251 245 245 244 247 253 265 282 297 309 312 312 314 315 317 316 315 313 311 317 322 323 325 325 324 323 329 350 2 336 326 331 333 330 330 327 321
252 248 248 249 252 254 254 251 249 248 250 257 266 279 291 298 301 304 310 316 317 316 314 314 317 322 325 328 331 332 330 328 336 14 345 2 345 346 348 335 330 326 322
257 247 244 246 245 251 258 255 251 252 254 257 262 273 280 291 297 304 312 316 317 314 311 310 317 324 330 334 340 338 330 327 332 355 1 350 4 353 345 337 329 323 320
265 254 242 237 240 247 259 255 251 250 252 254 259 268 277 285 292 300 308 312 312 308 304 301 308 317 322 329 339 351 336 327 251 343 346 343 351 348 344 336 331 325 321
267 248 233 228 233 244 254 257 255 254 253 257 263 268 266 278 285 295 304 310 311 308 302 298 304 314 320 331 342 346 336 310 288 328 334 328 336 336 339 336 333 326 321
269 245 229 222 227 233 242 254 256 254 255 257 261 259 265 276 285 296 306 313 313 309 302 293 295 301 306 317 329 340 331 302 319 311 322 316 325 326 331 332 331 324 317
271 240 226 220 220 225 236 251 254 252 254 257 260 262 267 273 281 293 302 308 312 307 303 294 291 291 293 300 307 310 310 307 313 310 307 310 315 320 323 326 331 330 320
261 241 225 217 218 227 241 251 253 255 258 261 266 269 269 275 282 289 295 299 301 303 301 292 287 285 287 289 292 299 300 303 301 297 302 308 308 313 318 321 325 327 319
243 229 221 218 222 231 242 251 258 262 265 269 272 274 277 280 284 288 291 294 295 295 294 292 286 284 283 285 287 290 293 295 296 297 296 302 305 307 309 313 318 321 320